Weather in Veseloyarsk

Russia / Altai Krai     51°17′01″N   81°06′12″E
temp.,
°C
wind,
m/s
gust,
m/s
humid.,
%
clouds,
%
prec.,
mm/h
press.,
hPa
HPBL,
m
18 april, sun
sun1801:00+3sse22790 0.0 102217
04:00+2s33810 0.0 102131
07:00+2s34810 0.0 102155
10:00+8ssw35595 0.0 1020507
13:00+13sw583966 0.0 10181862
16:00+15sw610347 0.0 10152352
19:00+16wsw47376 0.0 10131096
22:00+11ssw45485 0.0 101155
19 april, mon
mon1901:00+11ssw6145399 0.0 1009261
04:00+8wnw4985100 0.1 1011380
07:00+2nnw71163100 0.8 1016686
10:00−1n5660100 0.0 1021839
13:00+2n4441100 0.0 10221346
16:00+4n443390 0.0 10211833
19:00+4n5533100 0.0 10211901
22:000n694148 0.0 1023731
20 april, tue
tue2001:00−2nne7104550 0.0 1024742
04:00−3nne684671 0.0 1025867
07:00−4nne6748100 0.0 10261033
10:00−2nne673888 0.0 10261591
13:000n662965 0.0 10261939
16:00+2n662757 0.0 10252151
19:00+1nne672814 0.0 10262047
22:00−2n49455 0.0 1027302
21 april, wed
wed2101:00−2n37480 0.0 1026245
04:00−3nnw36510 0.0 1026189
07:00−3nnw24530 0.0 1025149
10:000wnw3434100 0.0 10251143
13:00+3w4529100 0.0 10231532
16:00+4w4537100 0.0 10221718
19:00+5w3440100 0.0 10211680
22:00+2wnw1283100 0.3 1023126
22 april, thu
thu2201:000nnw378790 0.5 1024386
04:00−2wnw379046 0.0 1026268
07:00−1nnw3484100 0.0 1027506
10:00+2ne585852 0.4 10301040
13:00+5ne7938100 0.4 10322293
16:00+5nne7941100 0.1 10332244
19:00+5nne794573 0.6 10351947
22:00+2n7125476 0.1 1037687